Gillette, WY

5:27 AM MST on February 25, 2017 (GMT -0700)
Gillette-Campbell County

Weather History for KGCC - November, 2013

Change the Weather History Date:

Saturday, November 30, 2013

  Actual Average Record
Temperature  
Mean Temperature 38 °F 26 °F  
Max Temperature 49 °F 37 °F 64 °F (1999)
Min Temperature 26 °F 16 °F -19 °F (1975)
Degree Days  
Heating Degree Days 27 39  
Month to date heating degree days 894 965  
Since 1 July heating degree days 1712 1875  
Cooling Degree Days 0 0  
Month to date cooling degree days 0 0  
Year to date cooling degree days 615 502  
Moisture  
Dew Point 23 °F    
Average Humidity 57    
Maximum Humidity 75    
Minimum Humidity 39    
Precipitation  
Precipitation 0.00 in 0.01 in 0.29 in (1986)
Month to date precipitation 0.04 0.55  
Year to date precipitation 18.60 13.49  
Sea Level Pressure  
Sea Level Pressure 30.14 in    
Wind  
Wind Speed 6 mph (WSW)    
Max Wind Speed 15 mph    
Max Gust Speed 17 mph    
Visibility 10 miles    
Events      
T = Trace of Precipitation, MM = Missing Value Source: NWS Daily Summary

Daily Weather History Graph

Daily Weather History Graph

Search for Another Location

Airport or City:

Trip Planner

Search our weather history database for the weather conditions in past years. The results will help you decide how hot, cold, wet, or windy it might be!

Date:

Astronomy

Nov. 30, 2013 Rise Set
Actual Time 7:17 AM MST 4:24 PM MST
Civil Twilight 6:44 AM MST 4:57 PM MST
Nautical Twilight 6:08 AM MST 5:33 PM MST
Astronomical Twilight 5:33 AM MST 6:08 PM MST
Moon 4:26 AM MST (11/30) 2:54 PM MST (11/30)
Length of Visible Light 10h 12m
Length of Day
9h 07m
Waning Crescent, 7% of the Moon is Illuminated
Nov 30
Waning Crescent
Dec 2
New
Dec 9
First Quarter
Dec 17
Full
Dec 25
Last Quarter

Hourly Weather History & Observations

Time (MST) Temp. Windchill Dew Point Humidity Pressure Visibility Wind Dir Wind Speed Gust Speed Precip Events Conditions
12:53 AM 35.1 °F 32.2 °F 21.0 °F 57% 30.05 in 10.0 mi Variable 3.5 mph - N/A   Clear
1:53 AM 34.0 °F 28.0 °F 21.0 °F 59% 30.06 in 10.0 mi West 6.9 mph - N/A   Clear
2:53 AM 36.0 °F 28.5 °F 21.0 °F 55% 30.07 in 10.0 mi West 10.4 mph - N/A   Clear
3:53 AM 30.9 °F 26.2 °F 19.9 °F 64% 30.12 in 10.0 mi South 4.6 mph - N/A   Clear
4:53 AM 35.1 °F 29.3 °F 21.0 °F 57% 30.15 in 10.0 mi West 6.9 mph - N/A   Clear
5:53 AM 34.0 °F 26.6 °F 21.0 °F 59% 30.16 in 10.0 mi West 9.2 mph - N/A   Clear
6:53 AM 32.0 °F 24.8 °F 21.0 °F 64% 30.20 in 10.0 mi West 8.1 mph - N/A   Clear
7:53 AM 35.1 °F 29.3 °F 21.9 °F 59% 30.19 in 10.0 mi West 6.9 mph - N/A   Overcast
8:53 AM 39.0 °F 34.0 °F 23.0 °F 53% 30.19 in 10.0 mi WSW 6.9 mph - N/A   Overcast
9:53 AM 42.1 °F 38.4 °F 24.1 °F 49% 30.21 in 10.0 mi West 5.8 mph - N/A   Overcast
10:53 AM 45.0 °F 40.6 °F 25.0 °F 46% 30.19 in 10.0 mi West 8.1 mph - N/A   Overcast
11:53 AM 46.9 °F - 25.0 °F 42% 30.19 in 10.0 mi Variable 4.6 mph - N/A   Partly Cloudy
12:53 PM 46.9 °F - 26.1 °F 44% 30.15 in 10.0 mi West 8.1 mph - N/A   Clear
1:53 PM 48.9 °F - 26.1 °F 41% 30.12 in 10.0 mi North 4.6 mph - N/A   Clear
2:53 PM 48.0 °F - 25.0 °F 41% 30.10 in 10.0 mi Variable 4.6 mph - N/A   Clear
3:53 PM 43.0 °F 41.3 °F 24.1 °F 47% 30.14 in 10.0 mi West 3.5 mph - N/A   Clear
4:53 PM 35.1 °F 30.1 °F 23.0 °F 61% 30.14 in 10.0 mi South 5.8 mph - N/A   Overcast
5:53 PM 28.0 °F - 19.9 °F 72% 30.18 in 10.0 mi Calm Calm - N/A   Overcast
6:53 PM 26.1 °F 19.4 °F 19.9 °F 78% 30.19 in 10.0 mi South 5.8 mph - N/A   Mostly Cloudy
7:53 PM 28.9 °F 21.9 °F 21.9 °F 75% 30.17 in 10.0 mi South 6.9 mph - N/A   Mostly Cloudy
8:53 PM 32.0 °F 28.7 °F 23.0 °F 69% 30.15 in 10.0 mi South 3.5 mph - N/A   Partly Cloudy
9:53 PM 28.0 °F 20.0 °F 21.9 °F 78% 30.14 in 10.0 mi South 8.1 mph - N/A   Clear
10:53 PM 32.0 °F 24.2 °F 24.1 °F 73% 30.11 in 10.0 mi South 9.2 mph - N/A   Clear
11:53 PM 33.1 °F - 24.1 °F 70% 30.09 in 10.0 mi Calm Calm - N/A   Clear